DW9313 Weather Reports


time (UTC)temp
C
wind
direction
speed
KPH
gust
KPH
rain 1hr
cm
rain 24hr
cm
rain mn
cm
humidity
%
barometer
mb
20260503072239 11 97 0.0 8.0 0.00 0.20 0.00 96 1009.7
20260503070739 11 107 1.6 4.8 0.00 0.20 0.00 97 1009.6
20260503070240 11 102 1.6 4.8 0.00 0.20 0.00 97 1009.5
20260503060240 10 101 0.0 1.6 0.00 0.20 0.00 97 1009.3
20260503054742 10 108 1.6 4.8 0.00 0.20 0.00 97 1009.2
20260503054242 10 101 1.6 4.8 0.00 0.20 0.00 96 1009.1
20260503053741 10 106 1.6 4.8 0.00 0.20 0.00 96 1009.1
20260503053241 10 103 0.0 1.6 0.00 0.20 0.00 96 1009.1
20260503052742 10 105 1.6 3.2 0.00 0.20 0.00 96 1009.1
20260503052241 10 103 3.2 8.0 0.00 0.20 0.00 96 1009.1
20260503051741 10 109 0.0 1.6 0.00 0.20 0.00 96 1009.1
20260503051242 10 122 0.0 3.2 0.00 0.20 0.00 96 1009.1
20260503050741 10 96 0.0 4.8 0.00 0.20 0.00 96 1009.1
20260503050242 10 123 0.0 3.2 0.00 0.20 0.00 96 1009.0
20260503045742 10 105 0.0 3.2 0.00 0.20 0.00 96 1009.1
20260503045242 10 123 1.6 3.2 0.00 0.20 0.00 96 1009.1
20260503044742 10 108 0.0 3.2 0.00 0.20 0.00 96 1009.1
20260503044242 10 104 0.0 3.2 0.00 0.20 0.00 96 1009.1
20260503043741 10 123 1.6 8.0 0.00 0.20 0.00 96 1009.1
20260503042741 10 97 1.6 3.2 0.00 0.20 0.00 96 1009.1
20260503042242 11 112 1.6 4.8 0.00 0.20 0.00 96 1009.2
20260503041743 10 98 1.6 4.8 0.00 0.20 0.00 96 1009.2
20260503040742 11 105 1.6 4.8 0.00 0.20 0.00 96 1009.2
20260503040241 11 112 1.6 9.7 0.00 0.20 0.00 96 1009.2
20260503035743 11 98 3.2 8.0 0.00 0.20 0.00 96 1009.2
20260503035241 11 94 3.2 9.7 0.00 0.20 0.00 96 1009.2
20260503034743 11 80 1.6 4.8 0.00 0.20 0.00 96 1009.2
20260503034241 11 95 3.2 8.0 0.00 0.20 0.00 96 1009.3
20260503033743 11 102 1.6 4.8 0.00 0.20 0.00 96 1009.2
20260503033243 11 106 0.0 1.6 0.00 0.20 0.00 96 1009.2
20260503032742 11 108 0.0 1.6 0.00 0.20 0.00 96 1009.2
20260503032241 11 105 0.0 1.6 0.00 0.20 0.00 96 1009.2
20260503031743 11 113 0.0 1.6 0.00 0.20 0.00 96 1009.2
20260503031242 11 111 0.0 1.6 0.00 0.20 0.00 96 1009.2
20260503030242 11 106 0.0 1.6 0.00 0.20 0.00 96 1009.2
20260503025742 11 100 0.0 0.0 0.00 0.20 0.00 96 1009.2
20260503025243 11 108 0.0 1.6 0.00 0.20 0.00 96 1009.2
20260503024742 11 108 0.0 1.6 0.00 0.20 0.00 96 1009.2
20260503024243 11 113 0.0 3.2 0.00 0.20 0.00 96 1009.2
20260503023743 11 101 0.0 1.6 0.00 0.20 0.00 96 1009.2
20260503023243 11 92 0.0 1.6 0.00 0.20 0.00 96 1009.3
20260503022742 11 100 0.0 3.2 0.00 0.20 0.00 96 1009.3
20260503022243 11 111 1.6 4.8 0.00 0.20 0.00 96 1009.3
20260503021743 11 100 0.0 0.0 0.00 0.20 0.00 96 1009.4
20260503021242 11 105 0.0 1.6 0.00 0.20 0.00 96 1009.4
20260503020742 11 107 0.0 1.6 0.00 0.20 0.00 96 1009.5
20260503015744 11 63 0.0 1.6 0.00 0.20 0.00 96 1009.5
20260503015242 11 99 0.0 1.6 0.00 0.20 0.00 96 1009.6
20260503014243 11 103 0.0 1.6 0.00 0.20 0.00 96 1009.6
20260503013744 11 107 0.0 1.6 0.00 0.20 0.00 96 1009.6
20260503013244 11 105 0.0 1.6 0.00 0.20 0.00 96 1009.7
20260503012242 11 111 0.0 1.6 0.00 0.20 0.00 96 1009.7
20260503011744 11 107 0.0 1.6 0.00 0.20 0.00 96 1009.7
20260503011243 11 108 0.0 0.0 0.00 0.20 0.00 96 1009.8
20260503010744 11 110 0.0 1.6 0.00 0.20 0.00 96 1009.9
20260503010243 11 106 0.0 0.0 0.00 0.20 0.00 96 1009.9
20260503005244 11 114 0.0 1.6 0.00 0.20 0.00 96 1009.9
20260503004744 11 116 0.0 0.0 0.00 0.20 0.00 96 1010.0
20260503004244 11 116 0.0 0.0 0.00 0.20 0.00 96 1010.0
20260503003743 11 117 0.0 1.6 0.00 0.20 0.00 96 1010.0
20260503003243 11 117 0.0 0.0 0.00 0.20 0.00 96 1010.0
20260503002744 11 117 0.0 1.6 0.00 0.20 0.00 96 1010.0
20260503002243 11 106 0.0 1.6 0.00 0.20 0.00 96 1010.0
20260503001243 11 107 0.0 1.6 0.00 0.20 0.00 96 1010.2
20260503000245 11 100 0.0 0.0 0.00 0.20 0.00 96 1010.2
20260502235743 11 103 0.0 1.6 0.00 0.20 0.00 96 1010.1
20260502235243 11 119 0.0 1.6 0.00 0.20 0.00 96 1010.2
20260502234745 11 107 0.0 1.6 0.00 0.20 0.00 96 1010.2
20260502234245 11 118 0.0 1.6 0.00 0.20 0.00 96 1010.2
20260502233743 11 108 0.0 1.6 0.00 0.20 0.00 96 1010.2
20260502232744 11 101 1.6 4.8 0.00 0.20 0.00 96 1010.2
20260502231244 11 107 1.6 4.8 0.00 0.20 0.00 96 1010.3
20260502230801 11 128 0.0 3.2 0.00 0.20 0.00 96 1010.3
20260502230246 11 141 1.6 3.2 0.03 0.20 0.00 96 1010.3
20260502225744 11 122 3.2 8.0 0.05 0.20 0.20 96 1010.3
20260502225244 11 139 1.6 4.8 0.05 0.20 0.20 96 1010.3
20260502224744 11 136 1.6 4.8 0.05 0.20 0.20 96 1010.3
20260502223745 11 144 0.0 1.6 0.05 0.20 0.20 96 1010.3
20260502223244 11 143 0.0 1.6 0.05 0.20 0.20 96 1010.3
20260502222746 11 146 0.0 3.2 0.05 0.20 0.20 96 1010.3
20260502221745 11 145 3.2 4.8 0.05 0.20 0.20 96 1010.4
20260502220744 11 152 0.0 3.2 0.05 0.20 0.20 96 1010.5
20260502220245 11 134 1.6 4.8 0.05 0.18 0.18 96 1010.5
20260502215746 11 136 1.6 4.8 0.05 0.15 0.15 96 1010.5
20260502215244 11 149 3.2 9.7 0.05 0.15 0.15 96 1010.4
20260502214746 11 143 1.6 8.0 0.05 0.15 0.15 96 1010.4
20260502214246 11 140 1.6 4.8 0.05 0.15 0.15 96 1010.4
20260502213745 11 143 1.6 4.8 0.05 0.15 0.15 96 1010.4
20260502213244 11 125 1.6 1.6 0.05 0.15 0.15 96 1010.4
20260502212746 11 128 0.0 1.6 0.05 0.15 0.15 96 1010.4
20260502212245 11 128 0.0 1.6 0.05 0.15 0.15 96 1010.5
20260502211745 11 156 0.0 1.6 0.03 0.15 0.15 96 1010.5
20260502211245 11 131 0.0 1.6 0.03 0.15 0.15 96 1010.5
20260502210245 11 123 0.0 1.6 0.03 0.15 0.15 96 1010.5
20260502205745 11 144 1.6 3.2 0.00 0.13 0.13 96 1010.5
20260502205245 11 126 1.6 4.8 0.00 0.13 0.13 96 1010.5
20260502204746 11 129 1.6 4.8 0.00 0.13 0.13 95 1010.5
20260502204245 11 139 1.6 4.8 0.00 0.13 0.13 95 1010.5
20260502203244 11 151 3.2 8.0 0.00 0.13 0.13 95 1010.5
20260502202745 11 144 1.6 8.0 0.00 0.13 0.13 95 1010.5
20260502202246 11 135 3.2 9.7 0.00 0.13 0.13 95 1010.6
20260502201746 11 135 1.6 9.7 0.00 0.13 0.13 95 1010.5
20260502201246 11 122 3.2 8.0 0.00 0.13 0.13 95 1010.5
20260502200746 11 131 3.2 8.0 0.00 0.13 0.13 95 1010.5
20260502200246 11 134 1.6 3.2 0.00 0.13 0.13 95 1010.5
20260502195246 11 138 3.2 8.0 0.00 0.13 0.13 95 1010.6
20260502194745 11 123 3.2 8.0 0.00 0.13 0.13 95 1010.5
20260502194245 11 115 3.2 8.0 0.00 0.13 0.13 95 1010.5
20260502193747 11 152 3.2 8.0 0.00 0.13 0.13 95 1010.6
20260502193246 11 134 3.2 8.0 0.00 0.13 0.13 95 1010.6
20260502192746 11 140 3.2 9.7 0.00 0.13 0.13 95 1010.6
20260502192245 11 136 1.6 4.8 0.00 0.13 0.13 95 1010.6
20260502191746 11 142 0.0 4.8 0.00 0.13 0.13 95 1010.6
20260502191246 11 136 1.6 4.8 0.00 0.13 0.13 95 1010.7
20260502190246 11 117 1.6 4.8 0.00 0.13 0.13 95 1010.7
20260502185747 11 147 0.0 3.2 0.00 0.13 0.13 95 1010.7
20260502185245 11 112 0.0 1.6 0.00 0.13 0.13 95 1010.7
20260502184746 11 98 0.0 3.2 0.00 0.13 0.13 95 1010.7
20260502184246 11 98 1.6 4.8 0.00 0.13 0.13 95 1010.7
20260502183747 11 98 0.0 1.6 0.00 0.13 0.13 95 1010.8
20260502182747 11 111 0.0 4.8 0.00 0.13 0.13 95 1010.8
20260502182247 11 121 0.0 3.2 0.00 0.13 0.13 95 1010.8
20260502181746 11 111 3.2 8.0 0.00 0.13 0.13 95 1010.8
20260502181246 11 93 3.2 8.0 0.00 0.13 0.13 95 1010.8
20260502180246 11 124 3.2 8.0 0.00 0.13 0.13 95 1010.9
20260502164247 11 135 4.8 11.3 0.03 0.10 0.10 94 1011.1
20260502163748 11 128 8.0 16.1 0.00 0.08 0.08 93 1011.2
20260502163247 11 133 9.7 16.1 0.00 0.08 0.08 93 1011.2
20260502162747 11 132 4.8 9.7 0.00 0.08 0.08 93 1011.2
20260502162247 11 123 8.0 12.9 0.00 0.08 0.08 92 1011.2
20260502161748 11 143 8.0 12.9 0.00 0.08 0.08 92 1011.3
20260502160747 11 114 6.4 9.7 0.00 0.08 0.08 92 1011.4
20260502160247 11 131 4.8 12.9 0.00 0.08 0.08 91 1011.4
20260502152248 12 105 8.0 11.3 0.00 0.08 0.08 90 1011.8
20260502151749 12 140 4.8 9.7 0.00 0.08 0.08 90 1012.1
20260502151248 12 130 6.4 11.3 0.00 0.08 0.08 89 1012.1
20260502150747 12 139 8.0 12.9 0.00 0.08 0.08 89 1012.2
20260502150247 12 128 8.0 12.9 0.03 0.08 0.08 89 1012.3
20260502130251 12 145 4.8 11.3 0.00 0.00 0.00 88 1013.4
20260502123250 12 145 9.7 16.1 0.00 0.00 0.00 90 1013.6
20260502122750 12 169 4.8 11.3 0.00 0.00 0.00 89 1013.6
20260502122249 12 165 9.7 16.1 0.00 0.00 0.00 89 1013.6
20260502121249 12 160 8.0 14.5 0.00 0.00 0.00 89 1013.7
20260502120749 12 167 4.8 11.3 0.00 0.00 0.00 89 1013.8
20260502120249 12 167 4.8 12.9 0.00 0.00 0.00 88 1013.9
20260502115749 12 180 1.6 11.3 0.00 0.00 0.00 89 1013.9
20260502115250 12 161 9.7 16.1 0.00 0.00 0.00 88 1013.9
20260502114750 12 155 6.4 12.9 0.00 0.00 0.00 89 1013.9
20260502114249 12 189 4.8 14.5 0.00 0.00 0.00 89 1013.9
20260502113251 12 144 9.7 19.3 0.00 0.00 0.00 88 1013.9
20260502112749 12 149 8.0 12.9 0.00 0.00 0.00 88 1013.9
20260502112250 12 185 6.4 19.3 0.00 0.00 0.00 88 1013.9
20260502111749 12 184 1.6 9.7 0.00 0.00 0.00 89 1013.9
20260502111250 12 173 4.8 11.3 0.00 0.00 0.00 89 1013.9
20260502110749 12 146 8.0 19.3 0.00 0.00 0.00 88 1013.9
20260502110249 12 175 8.0 14.5 0.00 0.00 0.00 89 1014.0
20260502105749 12 162 9.7 20.9 0.00 0.00 0.00 89 1014.0
20260502105250 12 164 8.0 14.5 0.00 0.00 0.00 89 1014.0
20260502104750 12 162 4.8 11.3 0.00 0.00 0.00 90 1014.0
20260502104249 12 171 8.0 14.5 0.00 0.00 0.00 89 1014.0
20260502103250 12 177 11.3 19.3 0.00 0.00 0.00 88 1014.0
20260502102749 12 139 9.7 16.1 0.00 0.00 0.00 89 1013.9
20260502102250 12 149 6.4 16.1 0.00 0.00 0.00 88 1014.0
20260502100250 13 177 6.4 16.1 0.00 0.00 0.00 87 1013.9
20260502090750 12 145 9.7 19.3 0.00 0.00 0.00 90 1014.3
20260502090251 12 147 9.7 19.3 0.00 0.00 0.00 90 1014.3